Orbital Elements at Epoch 2459200.5 (2020-Dec-17.0) TDB
Reference: JPL 21 (heliocentric ecliptic J2000)
Element | Value | Uncertainty (1-sigma) | Units |
e | .2107428132731121 | 3.3751e-08 | |
a | 2.276498640922976 | 7.7216e-09 | au |
q | 1.796742912922452 | 7.5144e-08 | au |
i | 6.744082086558985 | 4.1409e-06 | deg |
node | 266.9952625844361 | 3.7445e-05 | deg |
peri | 140.7239429038765 | 3.9697e-05 | deg |
M | 149.930866727354 | 1.3132e-05 | deg |
tp | 2458677.997863333144 (2019-Jul-13.49786333) | 4.4868e-05 | TDB |
period | 1254.583351019541 3.43 | 6.3831e-06 1.748e-08 | d yr |
n | .2869478538093501 | 1.4599e-09 | deg/d |
Q | 2.7562543689235 | 9.3489e-09 | au |
|
| | Orbit Determination Parameters
Additional Information
|